EW5209 Weather Reports


Display with metric or nautical units.
time (UTC)temp
F
wind
direction
speed
MPH
gust
MPH
rain 1hr
in
rain 24hr
in
rain mn
in
humidity
%
barometer
mb
20200705111904 0 108 0.0 3.0 0.00 0.00 0.00 1010.4
20200705111341 0 108 0.0 3.0 0.00 0.00 0.00 1010.4
20200705110835 76 108 0.0 3.0 0.00 0.00 0.00 87 1010.5
20200705110336 76 131 0.0 3.0 0.00 0.00 0.00 87 1010.5
20200705105834 77 117 0.0 0.0 0.00 0.00 0.00 87 1010.5
20200705105334 78 137 0.0 0.0 0.00 0.00 0.00 87 1010.6
20200705104836 78 134 0.0 0.0 0.00 0.00 0.00 87 1010.7
20200705104333 78 117 0.0 0.0 0.00 0.00 0.00 88 1010.8
20200705103833 78 122 0.0 0.0 0.00 0.00 0.00 87 1010.8
20200705103333 78 117 0.0 0.0 0.00 0.00 0.00 87 1010.8
20200705102831 78 113 0.0 0.0 0.00 0.00 0.00 87 1010.6
20200705102331 78 120 0.0 0.0 0.00 0.00 0.00 86 1010.6
20200705101833 78 104 0.0 0.0 0.00 0.00 0.00 87 1010.7
20200705101332 78 105 0.0 0.0 0.00 0.00 0.00 87 1010.7
20200705100833 78 120 0.0 0.0 0.00 0.00 0.00 88 1010.8
20200705100333 78 103 0.0 0.0 0.00 0.00 0.00 88 1010.8
20200705095830 78 112 0.0 1.0 0.00 0.00 0.00 88 1010.8
20200705095329 78 109 0.0 1.0 0.00 0.00 0.00 87 1010.8
20200705094827 78 104 0.0 3.0 0.00 0.00 0.00 87 1010.8
20200705094328 78 99 1.0 4.0 0.00 0.00 0.00 86 1010.8
20200705093828 78 117 0.0 4.0 0.00 0.00 0.00 86 1010.7
20200705093327 78 105 0.0 1.0 0.00 0.00 0.00 85 1010.7
20200705092827 78 92 0.0 0.0 0.00 0.00 0.00 85 1010.6
20200705092326 78 148 0.0 1.0 0.00 0.00 0.00 85 1010.5
20200705091827 78 162 0.0 1.0 0.00 0.00 0.00 85 1010.3
20200705091329 78 162 0.0 1.0 0.00 0.00 0.00 84 1010.3
20200705090829 78 162 0.0 1.0 0.00 0.00 0.00 84 1010.3
20200705090327 78 212 0.0 1.0 0.00 0.00 0.00 85 1010.3
20200705085827 78 212 0.0 1.0 0.00 0.00 0.00 85 1010.1
20200705085327 78 213 0.0 0.0 0.00 0.00 0.00 87 1010.2
20200705084828 78 125 0.0 0.0 0.00 0.00 0.00 88 1010.2
20200705084327 78 125 0.0 0.0 0.00 0.00 0.00 89 1010.3
20200705083832 78 125 0.0 0.0 0.00 0.00 0.00 88 1010.3
20200705083327 78 125 0.0 0.0 0.00 0.00 0.00 88 1010.3
20200705082828 78 125 0.0 0.0 0.00 0.00 0.00 88 1010.3
20200705082327 78 125 0.0 0.0 0.00 0.00 0.00 88 1010.3
20200705081828 78 125 0.0 0.0 0.00 0.00 0.00 87 1010.3
20200705081329 78 125 0.0 0.0 0.00 0.00 0.00 87 1010.3
20200705080828 78 125 0.0 0.0 0.00 0.00 0.00 87 1010.3
20200705080326 78 125 0.0 0.0 0.00 0.00 0.00 88 1010.3
20200705075828 78 125 0.0 0.0 0.00 0.00 0.00 88 1010.3
20200705075327 78 125 0.0 0.0 0.00 0.00 0.00 88 1010.3
20200705074826 79 125 0.0 0.0 0.00 0.00 0.00 88 1010.4
20200705074329 79 125 0.0 0.0 0.00 0.00 0.00 87 1010.4
20200705073827 79 125 0.0 0.0 0.00 0.00 0.00 86 1010.4
20200705073325 80 125 0.0 0.0 0.00 0.00 0.00 84 1010.4
20200705072822 80 125 0.0 0.0 0.00 0.00 0.00 84 1010.3
20200705072321 80 125 0.0 0.0 0.00 0.00 0.00 83 1010.3
20200705071819 80 125 0.0 0.0 0.00 0.00 0.00 83 1010.2
20200705071318 80 151 0.0 2.0 0.00 0.00 0.00 83 1010.2
20200705070820 80 151 0.0 2.0 0.00 0.00 0.00 83 1010.1
20200705070319 81 122 1.0 2.0 0.00 0.00 0.00 83 1010.0
20200705065819 81 120 1.0 2.0 0.00 0.00 0.00 83 1010.0
20200705065318 81 124 0.0 1.0 0.00 0.00 0.00 83 1010.1
20200705064820 81 132 0.0 3.0 0.00 0.00 0.00 83 1010.2
20200705064318 81 133 0.0 3.0 0.00 0.00 0.00 83 1010.3
20200705063819 81 126 1.0 3.0 0.00 0.00 0.00 83 1010.3
20200705063319 81 124 1.0 3.0 0.00 0.00 0.00 84 1010.3
20200705062819 81 112 0.0 3.0 0.00 0.00 0.00 85 1010.4
20200705062319 81 113 0.0 2.0 0.00 0.00 0.00 85 1010.5
20200705061819 81 115 0.0 2.0 0.00 0.00 0.00 85 1010.5
20200705061321 81 101 1.0 2.0 0.00 0.00 0.00 86 1010.5
20200705060820 81 107 1.0 2.0 0.00 0.00 0.00 86 1010.6
20200705060318 81 117 1.0 2.0 0.00 0.00 0.00 86 1010.6
20200705055818 81 98 0.0 3.0 0.00 0.00 0.00 86 1010.6
20200705055319 81 106 0.0 3.0 0.00 0.00 0.00 86 1010.5
20200705054820 81 104 1.0 3.0 0.00 0.00 0.00 85 1010.5
20200705054318 82 115 1.0 3.0 0.00 0.00 0.00 84 1010.5
20200705053821 82 105 1.0 3.0 0.00 0.00 0.00 84 1010.5
20200705053318 81 112 1.0 3.0 0.00 0.00 0.00 85 1010.6
20200705052820 81 121 1.0 3.0 0.00 0.00 0.00 85 1010.6
20200705052323 81 103 1.0 3.0 0.00 0.00 0.00 85 1010.7
20200705051824 81 113 1.0 4.0 0.00 0.00 0.00 86 1010.8
20200705051324 81 95 1.0 4.0 0.00 0.00 0.00 86 1010.9
20200705050820 81 107 1.0 3.0 0.00 0.00 0.00 86 1010.9
20200705050316 81 107 1.0 4.0 0.00 0.00 0.00 86 1011.0
20200705045815 81 94 1.0 4.0 0.00 0.00 0.00 86 1011.0
20200705045314 81 93 1.0 4.0 0.00 0.00 0.00 86 1011.0
20200705044816 81 84 1.0 4.0 0.00 0.00 0.00 86 1011.0
20200705044312 82 93 0.0 2.0 0.00 0.00 0.00 85 1011.2
20200705043824 82 109 0.0 3.0 0.00 0.00 0.00 85 1011.1
20200705043313 82 63 0.0 3.0 0.00 0.00 0.00 84 1011.1
20200705042811 82 81 1.0 3.0 0.00 0.00 0.00 84 1011.0
20200705042313 82 95 0.0 3.0 0.00 0.00 0.00 83 1011.0
20200705041810 82 96 0.0 0.0 0.00 0.00 0.00 82 1011.0
20200705041311 82 84 0.0 0.0 0.00 0.00 0.00 82 1011.1
20200705040812 82 83 0.0 2.0 0.00 0.00 0.00 82 1011.1
20200705040309 82 84 0.0 2.0 0.00 0.00 0.00 82 1011.1
20200705035811 83 84 0.0 2.0 0.00 0.00 0.00 82 1011.1
20200705035309 83 82 0.0 2.0 0.00 0.00 0.00 82 1011.2
20200705034810 83 91 0.0 0.0 0.00 0.00 0.00 82 1011.0
20200705034310 83 92 0.0 1.0 0.00 0.00 0.00 81 1011.0
20200705033817 83 101 0.0 1.0 0.00 0.00 0.00 81 1011.0
20200705033309 83 100 0.0 0.0 0.00 0.00 0.00 81 1010.9
20200705032809 83 101 0.0 0.0 0.00 0.00 0.00 81 1010.8
20200705032308 83 98 0.0 2.0 0.00 0.00 0.00 81 1010.7
20200705031808 83 98 0.0 2.0 0.00 0.00 0.00 81 1010.6
20200705031308 84 105 0.0 2.0 0.00 0.00 0.00 81 1010.6
20200705030807 84 105 0.0 2.0 0.00 0.00 0.00 80 1010.6
20200705030308 84 106 0.0 0.0 0.00 0.00 0.00 80 1010.4
20200705025807 85 106 0.0 1.0 0.00 0.00 0.00 79 1010.3
20200705025303 85 111 0.0 3.0 0.00 0.00 0.00 78 1010.3
20200705024803 85 111 0.0 3.0 0.00 0.00 0.00 76 1010.2
20200705024304 85 130 1.0 3.0 0.00 0.00 0.00 75 1010.2
20200705023803 85 115 1.0 3.0 0.00 0.00 0.00 75 1010.2
20200705023303 86 110 1.0 2.0 0.00 0.00 0.00 74 1010.1
20200705022804 86 113 0.0 2.0 0.00 0.00 0.00 73 1010.0
20200705022304 86 112 0.0 1.0 0.00 0.00 0.00 72 1009.9
20200705021803 87 117 1.0 2.0 0.00 0.00 0.00 70 1009.9
20200705021302 87 113 1.0 3.0 0.00 0.00 0.00 70 1009.8
20200705020804 87 120 1.0 3.0 0.00 0.00 0.00 69 1009.7
20200705020304 87 109 1.0 3.0 0.00 0.00 0.00 70 1009.7
20200705015804 87 110 0.0 2.0 0.00 0.00 0.00 70 1009.6
20200705015303 87 126 0.0 2.0 0.00 0.00 0.00 71 1009.6
20200705014805 87 117 0.0 1.0 0.00 0.00 0.00 70 1009.7
20200705014303 87 117 0.0 1.0 0.00 0.00 0.00 70 1009.7
20200705013800 88 115 0.0 0.0 0.00 0.00 0.00 70 1009.7
20200705013305 88 115 0.0 1.0 0.00 0.00 0.00 69 1009.7
20200705012800 89 112 0.0 1.0 0.00 0.00 0.00 69 1009.7
20200705012259 89 113 0.0 1.0 0.00 0.00 0.00 67 1009.7
20200705011801 89 106 0.0 2.0 0.00 0.00 0.00 68 1009.6
20200705011256 90 108 0.0 2.0 0.00 0.00 0.00 67 1009.6
20200705010755 90 108 0.0 3.0 0.00 0.00 0.00 65 1009.6
20200705010254 91 108 1.0 3.0 0.00 0.00 0.00 64 1009.5
20200705005753 91 121 1.0 3.0 0.00 0.00 0.00 64 1009.5
20200705005254 91 120 2.0 3.0 0.00 0.00 0.00 64 1009.5
20200705004750 91 111 2.0 4.0 0.00 0.00 0.00 63 1009.4
20200705004251 91 129 3.0 5.0 0.00 0.00 0.00 62 1009.4
20200705003750 92 106 3.0 5.0 0.00 0.00 0.00 62 1009.4
20200705003249 92 122 3.0 5.0 0.00 0.00 0.00 61 1009.4
20200705002746 92 109 2.0 4.0 0.00 0.00 0.00 61 1009.4
20200705002246 92 131 3.0 8.0 0.00 0.00 0.00 61 1009.5
20200705001747 92 148 3.0 8.0 0.00 0.00 0.00 61 1009.4
20200705001249 92 112 3.0 8.0 0.00 0.00 0.00 60 1009.5
20200705000746 92 135 4.0 8.0 0.00 0.00 0.00 60 1009.5
20200705000245 93 113 3.0 8.0 0.00 0.00 0.00 60 1009.5
20200704235754 93 127 3.0 8.0 0.00 0.00 0.00 59 1009.5
20200704235305 93 119 3.0 8.0 0.00 0.00 0.00 58 1009.5
20200704234742 93 101 3.0 8.0 0.00 0.00 0.00 59 1009.6
20200704234244 94 115 4.0 8.0 0.00 0.00 0.00 58 1009.7
20200704233740 94 143 4.0 8.0 0.00 0.00 0.00 58 1009.7
20200704233240 94 113 3.0 7.0 0.00 0.00 0.00 58 1009.7
20200704232742 94 113 2.0 6.0 0.00 0.00 0.00 58 1009.7
20200704232241 94 108 2.0 6.0 0.00 0.00 0.00 58 1009.8
20200704231740 94 131 3.0 6.0 0.00 0.00 0.00 59 1009.8
20200704231241 94 129 3.0 7.0 0.00 0.00 0.00 59 1009.8
20200704230739 94 106 4.0 7.0 0.00 0.00 0.00 60 1009.9
20200704230242 94 108 3.0 7.0 0.00 0.00 0.00 61 1009.9
20200704225738 94 90 2.0 6.0 0.00 0.00 0.00 59 1009.9
20200704225240 95 102 2.0 8.0 0.00 0.00 0.00 58 1010.0
20200704224739 95 112 3.0 8.0 0.00 0.00 0.00 59 1010.1
20200704224239 95 82 3.0 8.0 0.00 0.00 0.00 56 1010.2
20200704223738 95 120 3.0 8.0 0.00 0.00 0.00 56 1010.3
20200704223238 95 91 3.0 8.0 0.00 0.00 0.00 55 1010.3
20200704222741 95 101 3.0 8.0 0.00 0.00 0.00 57 1010.4
20200704222239 95 104 3.0 8.0 0.00 0.00 0.00 55 1010.4
20200704221737 96 85 2.0 6.0 0.00 0.00 0.00 52 1010.4
20200704221236 95 131 3.0 6.0 0.00 0.00 0.00 52 1010.5
20200704220737 96 99 3.0 6.0 0.00 0.00 0.00 52 1010.7
20200704220237 96 103 2.0 6.0 0.00 0.00 0.00 52 1010.8
20200704215740 96 137 2.0 6.0 0.00 0.00 0.00 51 1010.9
20200704215240 97 146 2.0 6.0 0.00 0.00 0.00 48 1011.0
20200704214738 96 97 2.0 6.0 0.00 0.00 0.00 49 1011.0
20200704214242 96 103 1.0 5.0 0.00 0.00 0.00 52 1011.1
20200704213738 96 41 1.0 5.0 0.00 0.00 0.00 52 1011.3
20200704213237 96 56 2.0 5.0 0.00 0.00 0.00 51 1011.5
20200704212736 96 40 2.0 5.0 0.00 0.00 0.00 53 1011.5
20200704212236 96 152 2.0 4.0 0.00 0.00 0.00 57 1011.7
20200704211735 95 151 2.0 4.0 0.00 0.00 0.00 55 1011.7
20200704211239 95 140 2.0 4.0 0.00 0.00 0.00 57 1011.8
20200704210747 95 56 1.0 4.0 0.00 0.00 0.00 55 1011.8
20200704210235 96 67 0.0 3.0 0.00 0.00 0.00 53 1011.9
20200704205734 97 70 0.0 3.0 0.00 0.00 0.00 54 1012.1
20200704205234 96 99 1.0 3.0 0.00 0.00 0.00 54 1012.1
20200704204734 97 120 1.0 5.0 0.00 0.00 0.00 52 1012.2
20200704204239 96 94 1.0 5.0 0.00 0.00 0.00 52 1012.1
20200704203737 96 37 2.0 6.0 0.00 0.00 0.00 54 1012.1
20200704203234 96 60 2.0 6.0 0.00 0.00 0.00 53 1012.2
20200704202731 96 110 2.0 6.0 0.00 0.00 0.00 55 1012.3
20200704202234 96 110 1.0 6.0 0.00 0.00 0.00 53 1012.3
20200704201737 96 97 1.0 4.0 0.00 0.00 0.00 54 1012.5
20200704201232 95 75 2.0 4.0 0.00 0.00 0.00 57 1012.5
20200704200734 94 88 1.0 5.0 0.00 0.00 0.00 56 1012.6
20200704200233 94 96 1.0 5.0 0.00 0.00 0.00 60 1012.8
20200704195733 94 259 1.0 4.0 0.00 0.00 0.00 59 1012.9
20200704195234 94 73 1.0 4.0 0.00 0.00 0.00 61 1013.0
20200704194734 94 96 0.0 4.0 0.00 0.00 0.00 60 1012.9
20200704194232 94 82 0.0 2.0 0.00 0.00 0.00 62 1012.9
20200704193733 95 66 0.0 2.0 0.00 0.00 0.00 58 1013.0
20200704193233 95 77 0.0 2.0 0.00 0.00 0.00 58 1013.1
20200704192734 96 63 0.0 2.0 0.00 0.00 0.00 57 1013.1
20200704192233 96 328 0.0 2.0 0.00 0.00 0.00 54 1013.1
20200704191731 96 209 0.0 4.0 0.00 0.00 0.00 55 1013.1
20200704191231 96 65 1.0 4.0 0.00 0.00 0.00 56 1013.1
20200704190730 96 359 1.0 4.0 0.00 0.00 0.00 55 1013.2
20200704190230 95 39 1.0 4.0 0.00 0.00 0.00 56 1013.4
20200704185730 95 52 1.0 4.0 0.00 0.00 0.00 55 1013.4
20200704185230 94 105 1.0 5.0 0.00 0.00 0.00 56 1013.4
20200704184729 94 54 1.0 5.0 0.00 0.00 0.00 57 1013.4
20200704184231 94 41 2.0 5.0 0.00 0.00 0.00 58 1013.5
20200704183732 94 124 2.0 5.0 0.00 0.00 0.00 56 1013.5
20200704183233 95 105 2.0 6.0 0.00 0.00 0.00 60 1013.6
20200704182730 94 83 2.0 6.0 0.00 0.00 0.00 60 1013.6
20200704182236 94 125 2.0 6.0 0.00 0.00 0.00 61 1013.5
20200704181728 93 132 2.0 6.0 0.00 0.00 0.00 60 1013.6
20200704181227 94 105 1.0 5.0 0.00 0.00 0.00 63 1013.6
20200704180725 93 119 1.0 5.0 0.00 0.00 0.00 62 1013.6
20200704180226 93 133 1.0 5.0 0.00 0.00 0.00 59 1013.6
20200704175726 93 242 1.0 5.0 0.00 0.00 0.00 60 1013.7
20200704175226 93 182 1.0 4.0 0.00 0.00 0.00 61 1013.7
20200704174728 93 74 1.0 4.0 0.00 0.00 0.00 60 1013.8
20200704174227 93 120 1.0 4.0 0.00 0.00 0.00 61 1013.9
20200704173727 93 117 1.0 4.0 0.00 0.00 0.00 60 1014.0
20200704173225 93 86 1.0 4.0 0.00 0.00 0.00 61 1014.0
20200704172727 92 129 1.0 4.0 0.00 0.00 0.00 61 1013.9
20200704172226 92 83 1.0 5.0 0.00 0.00 0.00 61 1013.9
20200704171726 92 250 1.0 5.0 0.00 0.00 0.00 61 1014.0
20200704171228 92 217 1.0 5.0 0.00 0.00 0.00 62 1014.0
20200704170727 91 139 2.0 5.0 0.00 0.00 0.00 64 1014.0
20200704170227 90 239 2.0 5.0 0.00 0.00 0.00 64 1014.0
20200704165727 89 114 1.0 4.0 0.00 0.00 0.00 65 1014.0
20200704165226 89 233 1.0 3.0 0.00 0.00 0.00 68 1014.0
20200704164726 89 150 2.0 4.0 0.00 0.00 0.00 67 1014.0
20200704164228 88 171 2.0 7.0 0.00 0.00 0.00 68 1014.1
20200704163725 88 238 2.0 7.0 0.00 0.00 0.00 68 1013.9
20200704163228 88 224 2.0 7.0 0.00 0.00 0.00 68 1013.9
20200704162725 88 233 3.0 7.0 0.00 0.00 0.00 67 1014.0
20200704162220 88 223 4.0 7.0 0.00 0.00 0.00 67 1014.1
20200704161718 88 191 3.0 7.0 0.00 0.00 0.00 67 1014.2
20200704161220 87 269 4.0 7.0 0.00 0.00 0.00 68 1014.2
20200704160718 87 248 3.0 7.0 0.00 0.00 0.00 67 1014.2
20200704160218 87 217 3.0 7.0 0.00 0.00 0.00 67 1014.1
20200704155719 87 245 3.0 7.0 0.00 0.00 0.00 68 1014.0
20200704155219 87 237 3.0 7.0 0.00 0.00 0.00 69 1014.0
20200704154715 86 245 4.0 12.0 0.00 0.00 0.00 70 1013.9
20200704154216 86 209 4.0 12.0 0.00 0.00 0.00 71 1014.0
20200704153720 85 231 5.0 12.0 0.00 0.00 0.00 71 1013.9
20200704153215 85 220 6.0 12.0 0.00 0.00 0.00 70 1014.0
20200704152743 85 254 5.0 11.0 0.00 0.00 0.00 71 1014.0
20200704152217 85 252 4.0 11.0 0.00 0.00 0.00 70 1014.0
20200704151727 85 240 5.0 11.0 0.00 0.00 0.00 70 1014.0
20200704151217 85 239 4.0 11.0 0.00 0.00 0.00 71 1014.0
20200704150717 85 239 4.0 7.0 0.00 0.00 0.00 73 1013.9
20200704150213 84 245 3.0 7.0 0.00 0.00 0.00 74 1013.9
20200704145713 84 210 3.0 7.0 0.00 0.00 0.00 73 1014.0
20200704145214 84 149 3.0 7.0 0.00 0.00 0.00 74 1013.9
20200704144716 83 232 3.0 8.0 0.00 0.00 0.00 75 1013.9
20200704144221 83 256 3.0 8.0 0.00 0.00 0.00 74 1013.9
20200704143717 83 176 3.0 8.0 0.00 0.00 0.00 76 1014.0
20200704143216 83 158 3.0 8.0 0.00 0.00 0.00 76 1014.1
20200704142713 83 233 1.0 7.0 0.00 0.00 0.00 75 1014.0
20200704142219 82 221 1.0 5.0 0.00 0.00 0.00 77 1014.1
20200704141712 81 168 1.0 5.0 0.00 0.00 0.00 78 1014.1
20200704141213 81 146 2.0 5.0 0.00 0.00 0.00 78 1014.1
20200704140715 80 176 2.0 5.0 0.00 0.00 0.00 77 1014.1
20200704140211 80 203 2.0 6.0 0.00 0.00 0.00 78 1014.0
20200704135711 80 155 1.0 6.0 0.00 0.00 0.00 79 1014.0
20200704135211 80 108 1.0 5.0 0.00 0.00 0.00 80 1014.0
20200704134712 79 141 1.0 5.0 0.00 0.00 0.00 80 1014.0
20200704134211 78 172 2.0 5.0 0.00 0.00 0.00 80 1014.1
20200704133714 78 163 1.0 6.0 0.00 0.00 0.00 80 1014.0
20200704133213 78 115 1.0 6.0 0.00 0.00 0.00 81 1014.0
20200704132709 78 203 1.0 6.0 0.00 0.00 0.00 82 1013.9
20200704132209 77 110 2.0 6.0 0.00 0.00 0.00 82 1013.8
20200704131709 77 108 1.0 5.0 0.00 0.00 0.00 83 1013.8
20200704131209 76 116 2.0 7.0 0.00 0.00 0.00 84 1013.9
20200704130709 76 115 2.0 7.0 0.00 0.00 0.00 84 1013.8
20200704130217 76 165 2.0 7.0 0.00 0.00 0.00 85 1013.7
20200704125711 76 131 3.0 7.0 0.00 0.00 0.00 84 1013.7
20200704125209 75 105 2.0 5.0 0.00 0.00 0.00 85 1013.8
20200704124711 75 117 2.0 5.0 0.00 0.00 0.00 86 1013.8
20200704124213 75 129 1.0 4.0 0.00 0.00 0.00 87 1013.8
20200704123708 74 114 1.0 3.0 0.00 0.00 0.00 87 1013.8
20200704123209 74 117 0.0 2.0 0.00 0.00 0.00 88 1013.8
20200704122707 74 152 0.0 2.0 0.00 0.00 0.00 88 1013.8
20200704122208 74 133 1.0 2.0 0.00 0.00 0.00 89 1013.8
20200704121707 73 136 0.0 2.0 0.00 0.00 0.00 89 1013.8
20200704121209 73 162 0.0 1.0 0.00 0.00 0.00 89 1013.8
20200704120708 73 148 0.0 1.0 0.00 0.00 0.00 90 1013.8
20200704120208 73 146 0.0 0.0 0.00 0.00 0.00 90 1013.9
20200704115710 0 0.0 0.0 0.00 0.00 0.00 1013.9
20200704115209 0 0.0 0.0 0.00 0.00 0.00 1013.8
20200704114704 0 0.0 0.0 0.00 0.00 0.00 1013.9
20200704114111 0 0.0 0.0 0.00 0.00 0.00 1013.9
20200704113611 0 0.0 0.0 0.00 0.00 0.00 1013.8
20200704113105 0 0.0 0.0 0.00 0.00 0.00 1013.6
20200704112604 0 0.0 0.0 0.00 0.00 0.00 1013.6